Estación Meteorológica Peña el Pijo (Robertgarden) [ 07/07/20 11:10:19 CEST ]

Fecha Hora Presion(HPa) Temp (°C) Humedad % Rocio (°C) Viento ( m/s) Direccion Lluvia 1Hora(mm) Lluvia 24H(mm) LLuvia Total(mm)
2020-May-15 01:09:18 1001.700 - - - - W     39.88
2020-May-15 02:09:00 1001.600 - - - - W     39.88
2020-May-15 03:09:53 1001.300 - - - - W     39.88
2020-May-15 04:09:00 1001.300 - - - - W     39.88
2020-May-15 05:09:45 1001.100 - - - - W     39.88
2020-May-15 06:09:12 1001.300 - - - - W     39.88
2020-May-15 07:10:06 1001.800 - - - - W     39.88
2020-May-15 08:10:41 1002.200 - - - - W     39.88
2020-May-15 09:09:31 1002.500 - - - - W     39.88
2020-May-15 10:09:37 1003.000 - - - - W     39.88
2020-May-15 11:08:42 1003.100 - - - - W     39.88
2020-May-15 12:08:41 1003.000 - - - - W     39.88
2020-May-15 13:09:37 1003.000 - - - - W     39.88
2020-May-15 14:09:04 1003.000 - - - - W     39.88
2020-May-15 15:08:57 1003.100 - - - - W     39.88
2020-May-15 16:09:16 1003.000 - - - - W     39.88
2020-May-15 17:09:26 1002.900 - - - - W     39.88
2020-May-15 18:09:18 1003.000 - - - - W     39.88
2020-May-15 19:09:17 1003.000 - - - - W     39.88
2020-May-15 20:09:51 1003.400 - - - - W     39.88
2020-May-15 21:09:02 1004.000 - - - - W     39.88
2020-May-15 22:08:38 1004.000 - - - - W     39.88
2020-May-15 23:09:12 1004.800 - - - - W     39.88

Temperatura Máxima:    Temperatura Mínima:
Presión Máxima:1004.800 Hpa    Presión Mínima:1001.100 Hpa


Volver